Home   Weather   Brantford   Past weeks

Flag for Canada Past Weather in Brantford, Ontario, Canada — Yesterday and Last 2 Weeks

Now
32 °F

Light freezing rain. Overcast.


Feels Like: 21 °F
Forecast: 31 / 36 °F
Wind: 16 mph from Northeast

Location: Hamilton Airport

Current Time: Jan 17, 2017 at 6:14:50 am

Latest Report: Jan 17, 2017 at 5:00 am


Visibility: 15 mi

Pressure: 30.10 "Hg

Humidity: 93%

Dew Point: 30 °F

Location of BrantfordLocation

Past Weather in Brantford — Graph

°F

Brantford Temperature Yesterday

Maximum temperature yesterday: 36 °F (at 2:00 pm)
Minimum temperature yesterday: 19 °F (at 1:00 am)
Average temperature yesterday: 28 °F

High & Low Weather Summary for the Past Weeks

 TemperatureHumidityPressure
High54 °F (Jan 12, 4:00 am)100% (Jan 3, 12:00 am)30.79 "Hg (Jan 3, 12:00 am)
Low3 °F (Jan 7, 3:00 am)48% (Jan 8, 1:00 pm)29.46 "Hg (Jan 4, 2:00 am)
Average25 °F79%30.15 "Hg
* Reported Jan 2 5:00 am — Jan 17 5:00 am, Brantford, Weather by CustomWeather, © 2017

Note: Actual official high and low records may vary slightly from our data, if they occured in-between our weather recording intervals... More about our weather records

Advertising

Brantford Weather History for the Previous 24 Hours

Scroll right to see more
 ConditionsComfort  
Time TempWeatherWind HumidityBarometerVisibility
5:00 am
Tue, Jan 17
32 °FLight freezing rain. Overcast.16 mph93%30.10 "Hg15 mi
4:00 am32 °FLight freezing rain. Overcast.7 mph93%30.14 "Hg15 mi
3:00 am32 °FLight freezing rain. Overcast.7 mph93%30.15 "Hg15 mi
2:00 am32 °FLight freezing rain. Mostly cloudy.3 mph93%30.18 "Hg15 mi
1:00 am32 °FLight freezing rain. Overcast.3 mph93%30.19 "Hg15 mi
12:00 am32 °FLight freezing rain. Overcast.3 mph87%30.21 "Hg15 mi
11:00 pm
Mon, Jan 16
32 °FLight freezing rain. Overcast.No wind87%30.24 "Hg15 mi
10:00 pm32 °FLight freezing rain. Mostly cloudy.No wind80%30.25 "Hg15 mi
9:00 pm32 °FLight freezing rain. Overcast.3 mph80%30.27 "Hg15 mi
8:27 pm32 °FLight freezing rain. Mostly cloudy.No wind80%30.27 "Hg15 mi
8:00 pm32 °FLight rain. Overcast.No wind80%30.28 "Hg15 mi
7:00 pm32 °FOvercast.8 mph87%30.28 "Hg15 mi
6:00 pm34 °FOvercast.9 mph81%30.29 "Hg15 mi
5:00 pm34 °FMostly cloudy.7 mph75%30.30 "Hg15 mi
4:00 pm36 °FMostly cloudy.3 mph56%30.29 "Hg15 mi
3:00 pm36 °FOvercast.3 mph56%30.30 "Hg15 mi
2:00 pm36 °FMostly cloudy.7 mph56%30.31 "Hg12 mi
1:00 pm34 °FMostly cloudy.8 mph60%30.33 "Hg12 mi
12:00 pm32 °FBroken clouds.8 mph75%30.35 "Hg15 mi
11:00 am30 °FPartly sunny.10 mph80%30.38 "Hg15 mi
10:00 am27 °FOvercast.9 mph86%30.40 "Hg15 mi
9:00 am23 °FPartly sunny.8 mph86%30.38 "Hg15 mi
8:00 am21 °FPartly sunny.10 mph86%30.37 "Hg15 mi
7:00 am21 °FPassing clouds.8 mph86%30.37 "Hg15 mi
6:00 am21 °FPassing clouds.9 mph86%30.37 "Hg15 mi
Weather by CustomWeather, © 2017

See weather overviewHow to use our weather pages